RYR44JG LPPR-LEZL

Flight info

Callsign RYR44JG
Flight time 0h 54m
Altitude 35000
Route PESUL DCT DIGAL DCT LASIB DCT ROSAL M744 SANTA
Aircraft B738/M-SDE2E3FGHIRWXY/LB1

Departure

Time 2026-05-04 12:02
Airport Francisco de Sá Carneiro Airport (LPPR)

Arrival

Time 2026-05-04 12:57
Airport Seville Airport (LEZL)
Time Latitude Longitude Altitude Speed Heading
2026-05-04 11:41 41.23792 -8.67367 242 ft 0 kts 49°
2026-05-04 11:56 41.23777 -8.67393 241 ft 4 kts 63°
2026-05-04 11:57 41.23769 -8.67425 240 ft 4 kts 93°
2026-05-04 11:57 41.23777 -8.67456 238 ft 4 kts 139°
2026-05-04 11:57 41.23792 -8.67467 238 ft 0 kts 169°
2026-05-04 11:59 41.23782 -8.67465 238 ft 4 kts 169°
2026-05-04 11:59 41.23727 -8.67451 237 ft 12 kts 169°
2026-05-04 12:00 41.23620 -8.67422 237 ft 19 kts 168°
2026-05-04 12:00 41.23494 -8.67390 238 ft 14 kts 169°
2026-05-04 12:00 41.23401 -8.67367 238 ft 13 kts 169°
2026-05-04 12:00 41.23336 -8.67437 236 ft 14 kts 254°
2026-05-04 12:01 41.23314 -8.67564 239 ft 14 kts 257°
2026-05-04 12:01 41.23297 -8.67687 236 ft 13 kts 271°
2026-05-04 12:02 41.27879 -8.68902 1996 ft 188 kts 346°
2026-05-04 12:03 41.29231 -8.69249 2377 ft 208 kts 345°
2026-05-04 12:03 41.30726 -8.69656 2619 ft 234 kts 346°
2026-05-04 12:03 41.32377 -8.70116 3161 ft 248 kts 346°
2026-05-04 12:03 41.34096 -8.70597 3891 ft 254 kts 346°
2026-05-04 12:04 41.35827 -8.71081 4764 ft 256 kts 345°
2026-05-04 12:04 41.37573 -8.71569 5591 ft 259 kts 345°
2026-05-04 12:04 41.39372 -8.71979 6357 ft 266 kts 357°
2026-05-04 12:04 41.41162 -8.71361 7161 ft 274 kts 26°
2026-05-04 12:05 41.42551 -8.69596 7960 ft 284 kts 54°
2026-05-04 12:05 41.43336 -8.67162 8783 ft 291 kts 75°
2026-05-04 12:05 41.43752 -8.64506 9624 ft 296 kts 78°
2026-05-04 12:05 41.43895 -8.61747 10379 ft 305 kts 97°
2026-05-04 12:06 41.43121 -8.59028 10648 ft 330 kts 127°
2026-05-04 12:06 41.41387 -8.56961 11149 ft 340 kts 148°
2026-05-04 12:06 41.39380 -8.55226 11887 ft 347 kts 149°
2026-05-04 12:06 41.37330 -8.53503 12734 ft 351 kts 149°
2026-05-04 12:07 41.35251 -8.51758 13587 ft 356 kts 150°
2026-05-04 12:07 41.33148 -8.49979 14372 ft 361 kts 150°
2026-05-04 12:07 41.31021 -8.48165 15153 ft 365 kts 150°
2026-05-04 12:07 41.28869 -8.46321 15951 ft 370 kts 150°
2026-05-04 12:08 41.26698 -8.44454 16749 ft 374 kts 150°
2026-05-04 12:08 41.24495 -8.42558 17501 ft 380 kts 150°
2026-05-04 12:08 41.22262 -8.40637 18252 ft 385 kts 151°
2026-05-04 12:08 41.19999 -8.38690 18964 ft 389 kts 151°
2026-05-04 12:09 41.17719 -8.36728 19671 ft 392 kts 151°
2026-05-04 12:09 41.15421 -8.34753 20382 ft 395 kts 151°
2026-05-04 12:09 41.13104 -8.32764 21111 ft 398 kts 151°
2026-05-04 12:09 41.10772 -8.30766 21811 ft 401 kts 151°
2026-05-04 12:10 41.08414 -8.28748 22468 ft 406 kts 152°
2026-05-04 12:10 41.06060 -8.26736 23129 ft 410 kts 152°
2026-05-04 12:10 41.03649 -8.24677 23738 ft 414 kts 152°
2026-05-04 12:10 41.01218 -8.22600 24276 ft 417 kts 152°
2026-05-04 12:11 40.98766 -8.20506 24769 ft 422 kts 152°
2026-05-04 12:11 40.96293 -8.18395 25259 ft 425 kts 152°
2026-05-04 12:11 40.93799 -8.16268 25782 ft 428 kts 152°
2026-05-04 12:11 40.91281 -8.14124 26256 ft 433 kts 152°
2026-05-04 12:12 40.88691 -8.12086 26717 ft 432 kts 161°
2026-05-04 12:12 40.85834 -8.11080 27181 ft 422 kts 179°
2026-05-04 12:12 40.82910 -8.10751 27696 ft 423 kts 181°
2026-05-04 12:12 40.79959 -8.10465 28107 ft 427 kts 181°
2026-05-04 12:13 40.76982 -8.10182 28536 ft 431 kts 181°
2026-05-04 12:14 40.55799 -8.07934 31673 ft 438 kts 181°
2026-05-04 12:15 40.52771 -8.07588 32196 ft 435 kts 182°
2026-05-04 12:15 40.49762 -8.07247 32704 ft 434 kts 182°
2026-05-04 12:15 40.46755 -8.06912 33142 ft 434 kts 182°
2026-05-04 12:15 40.43745 -8.06579 33562 ft 434 kts 182°
2026-05-04 12:16 40.40782 -8.06253 34022 ft 433 kts 182°
2026-05-04 12:16 40.37787 -8.05924 34416 ft 432 kts 182°
2026-05-04 12:16 40.34755 -8.05592 34789 ft 431 kts 182°
2026-05-04 12:16 40.31801 -8.05269 35079 ft 433 kts 182°
2026-05-04 12:17 40.25753 -8.04611 35073 ft 436 kts 182°
2026-05-04 12:17 40.19753 -8.03949 35058 ft 429 kts 182°
2026-05-04 12:18 40.13808 -8.03300 35060 ft 428 kts 182°
2026-05-04 12:18 40.07876 -8.02656 35071 ft 428 kts 182°
2026-05-04 12:19 40.01933 -8.02012 35060 ft 429 kts 182°
2026-05-04 12:19 39.95980 -8.01366 35043 ft 429 kts 182°
2026-05-04 12:20 39.90028 -8.00721 35054 ft 429 kts 182°
2026-05-04 12:20 39.84070 -8.00075 35057 ft 430 kts 182°
2026-05-04 12:21 39.78106 -7.99433 35054 ft 430 kts 182°
2026-05-04 12:21 39.72159 -7.98248 35039 ft 440 kts 168°
2026-05-04 12:22 39.66371 -7.95585 35060 ft 442 kts 166°
2026-05-04 12:22 39.60602 -7.92836 35057 ft 441 kts 166°
2026-05-04 12:23 39.54833 -7.90136 35051 ft 441 kts 167°
2026-05-04 12:23 39.49063 -7.87477 35043 ft 440 kts 167°
2026-05-04 12:24 39.44262 -7.85278 35048 ft 440 kts 167°
2026-05-04 12:24 39.38485 -7.82638 35055 ft 440 kts 167°
2026-05-04 12:25 39.32703 -7.79999 35054 ft 441 kts 167°
2026-05-04 12:25 39.26917 -7.77361 35047 ft 441 kts 167°
2026-05-04 12:26 39.21125 -7.74726 35058 ft 441 kts 167°
2026-05-04 12:26 39.15329 -7.72093 35060 ft 442 kts 167°
2026-05-04 12:27 39.09524 -7.69460 35022 ft 442 kts 167°
2026-05-04 12:27 39.03728 -7.66835 35054 ft 441 kts 167°
2026-05-04 12:28 39.00847 -7.65531 34860 ft 437 kts 168°
2026-05-04 12:28 38.97998 -7.64241 34563 ft 430 kts 168°
2026-05-04 12:28 38.95188 -7.62969 34205 ft 427 kts 168°
2026-05-04 12:28 38.92398 -7.61710 33817 ft 423 kts 168°
2026-05-04 12:29 38.89629 -7.60463 33413 ft 420 kts 168°
2026-05-04 12:29 38.86884 -7.59227 32986 ft 417 kts 168°
2026-05-04 12:29 38.84162 -7.58003 32666 ft 412 kts 168°
2026-05-04 12:29 38.81501 -7.56807 32292 ft 409 kts 168°
2026-05-04 12:30 38.78826 -7.55606 31927 ft 406 kts 168°
2026-05-04 12:30 38.76170 -7.54415 31566 ft 403 kts 168°
2026-05-04 12:30 38.73534 -7.53233 31222 ft 400 kts 168°
2026-05-04 12:30 38.70921 -7.52063 30870 ft 397 kts 168°
2026-05-04 12:31 38.68325 -7.50901 30520 ft 394 kts 168°
2026-05-04 12:31 38.65743 -7.49747 30172 ft 392 kts 168°
2026-05-04 12:31 38.63174 -7.48599 29743 ft 390 kts 168°
2026-05-04 12:31 38.60626 -7.47461 29367 ft 386 kts 168°
2026-05-04 12:32 38.58108 -7.46336 28995 ft 383 kts 168°
2026-05-04 12:32 38.53110 -7.44108 28258 ft 378 kts 168°
2026-05-04 12:32 38.50625 -7.43003 27903 ft 378 kts 168°
2026-05-04 12:33 38.48131 -7.41896 27543 ft 381 kts 168°
2026-05-04 12:33 38.45630 -7.40785 27178 ft 379 kts 168°
2026-05-04 12:33 38.43148 -7.39682 26812 ft 377 kts 168°
2026-05-04 12:33 38.40681 -7.38585 26422 ft 374 kts 168°
2026-05-04 12:34 38.38233 -7.37497 26078 ft 371 kts 168°
2026-05-04 12:34 38.35800 -7.36418 25728 ft 369 kts 168°
2026-05-04 12:34 38.33383 -7.35347 25385 ft 367 kts 168°
2026-05-04 12:34 38.30977 -7.34282 25035 ft 365 kts 168°
2026-05-04 12:35 38.28581 -7.33222 24696 ft 364 kts 168°
2026-05-04 12:35 38.26192 -7.32166 24325 ft 363 kts 167°
2026-05-04 12:35 38.23811 -7.31115 23982 ft 362 kts 167°
2026-05-04 12:35 38.21432 -7.30064 23616 ft 361 kts 167°
2026-05-04 12:36 38.19062 -7.29018 23205 ft 360 kts 167°
2026-05-04 12:36 38.16700 -7.27976 22833 ft 358 kts 167°
2026-05-04 12:36 38.14356 -7.26943 22478 ft 355 kts 167°
2026-05-04 12:36 38.12029 -7.25918 22141 ft 353 kts 167°
2026-05-04 12:37 38.09717 -7.24900 21797 ft 350 kts 167°
2026-05-04 12:37 38.07426 -7.23891 21476 ft 348 kts 166°
2026-05-04 12:37 38.05283 -7.22423 21122 ft 358 kts 143°
2026-05-04 12:37 38.03750 -7.19968 20849 ft 364 kts 120°
2026-05-04 12:38 38.02977 -7.16862 20525 ft 366 kts 101°
2026-05-04 12:38 38.02579 -7.13685 20199 ft 364 kts 99°
2026-05-04 12:38 38.02133 -7.10529 19850 ft 363 kts 107°
2026-05-04 12:38 38.01226 -7.07620 19529 ft 358 kts 120°
2026-05-04 12:39 38.00047 -7.04855 19199 ft 356 kts 122°
2026-05-04 12:39 37.98832 -7.02125 18885 ft 355 kts 122°
2026-05-04 12:39 37.97615 -6.99410 18547 ft 354 kts 123°
2026-05-04 12:39 37.96407 -6.96700 18200 ft 353 kts 122°
2026-05-04 12:40 37.95207 -6.93992 17853 ft 351 kts 122°
2026-05-04 12:40 37.94019 -6.91295 17513 ft 350 kts 122°
2026-05-04 12:40 37.92841 -6.88614 17194 ft 348 kts 122°
2026-05-04 12:40 37.91667 -6.85937 16862 ft 346 kts 122°
2026-05-04 12:41 37.90501 -6.83275 16531 ft 344 kts 122°
2026-05-04 12:41 37.89343 -6.80631 16216 ft 342 kts 122°
2026-05-04 12:41 37.88191 -6.78006 15910 ft 340 kts 122°
2026-05-04 12:41 37.87044 -6.75392 15582 ft 339 kts 122°
2026-05-04 12:42 37.85904 -6.72794 15282 ft 336 kts 122°
2026-05-04 12:42 37.84770 -6.70213 14967 ft 335 kts 122°
2026-05-04 12:42 37.83640 -6.67641 14659 ft 334 kts 122°
2026-05-04 12:42 37.82515 -6.65085 14344 ft 332 kts 122°
2026-05-04 12:43 37.81393 -6.62537 14034 ft 330 kts 122°
2026-05-04 12:43 37.80277 -6.60006 13709 ft 329 kts 122°
2026-05-04 12:43 37.79168 -6.57491 13370 ft 327 kts 122°
2026-05-04 12:43 37.78063 -6.54989 13041 ft 325 kts 121°
2026-05-04 12:44 37.76966 -6.52504 12712 ft 322 kts 121°
2026-05-04 12:44 37.75877 -6.50040 12405 ft 320 kts 121°
2026-05-04 12:44 37.74795 -6.47596 12105 ft 318 kts 121°
2026-05-04 12:44 37.73719 -6.45164 11802 ft 316 kts 121°
2026-05-04 12:45 37.72649 -6.42750 11499 ft 314 kts 121°
2026-05-04 12:45 37.71585 -6.40349 11191 ft 312 kts 121°
2026-05-04 12:45 37.70527 -6.37965 10890 ft 310 kts 121°
2026-05-04 12:45 37.69475 -6.35594 10594 ft 309 kts 122°
2026-05-04 12:46 37.68426 -6.33233 10300 ft 308 kts 121°
2026-05-04 12:46 37.67385 -6.30893 10115 ft 302 kts 121°
2026-05-04 12:46 37.66362 -6.28597 9845 ft 300 kts 121°
2026-05-04 12:46 37.65337 -6.26307 9491 ft 300 kts 122°
2026-05-04 12:47 37.64314 -6.24022 9150 ft 298 kts 121°
2026-05-04 12:47 37.63296 -6.21754 8835 ft 297 kts 121°
2026-05-04 12:47 37.62282 -6.19492 8522 ft 296 kts 121°
2026-05-04 12:47 37.61267 -6.17230 8191 ft 296 kts 121°
2026-05-04 12:48 37.60256 -6.14977 7875 ft 294 kts 121°
2026-05-04 12:48 37.59250 -6.12737 7560 ft 293 kts 120°
2026-05-04 12:48 37.58246 -6.10503 7244 ft 292 kts 120°
2026-05-04 12:48 37.57245 -6.08277 6925 ft 291 kts 120°
2026-05-04 12:49 37.56266 -6.06100 6627 ft 290 kts 120°
2026-05-04 12:49 37.55271 -6.03892 6308 ft 289 kts 119°
2026-05-04 12:49 37.54279 -6.01690 5975 ft 289 kts 120°
2026-05-04 12:49 37.53289 -5.99491 5661 ft 288 kts 120°
2026-05-04 12:50 37.52302 -5.97304 5339 ft 287 kts 120°
2026-05-04 12:50 37.51318 -5.95122 5035 ft 285 kts 120°
2026-05-04 12:50 37.50339 -5.92956 4725 ft 284 kts 121°
2026-05-04 12:50 37.49368 -5.90808 4528 ft 280 kts 121°
2026-05-04 12:51 37.48518 -5.88628 4261 ft 277 kts 106°
2026-05-04 12:51 37.48300 -5.86267 4081 ft 272 kts 91°
2026-05-04 12:51 37.48266 -5.83893 3841 ft 270 kts 90°
2026-05-04 12:51 37.48253 -5.81535 3601 ft 269 kts 90°
2026-05-04 12:52 37.48244 -5.79183 3349 ft 268 kts 90°
2026-05-04 12:52 37.48242 -5.76848 3092 ft 266 kts 89°
2026-05-04 12:52 37.48239 -5.74531 2860 ft 263 kts 90°
2026-05-04 12:52 37.47999 -5.72288 2674 ft 257 kts 112°
2026-05-04 12:53 37.46982 -5.70527 2571 ft 245 kts 145°
2026-05-04 12:53 37.45478 -5.69778 2448 ft 229 kts 178°
2026-05-04 12:53 37.43917 -5.69661 2363 ft 221 kts 179°
2026-05-04 12:53 37.42414 -5.69763 2245 ft 213 kts 201°
2026-05-04 12:54 37.41340 -5.70819 2146 ft 190 kts 244°
2026-05-04 12:54 37.41263 -5.72412 2108 ft 195 kts 290°
2026-05-04 12:54 37.41697 -5.74009 1979 ft 191 kts 276°
2026-05-04 12:54 37.41789 -5.75597 1946 ft 182 kts 274°
2026-05-04 12:55 37.41845 -5.77172 1770 ft 179 kts 271°
2026-05-04 12:55 37.41825 -5.78736 1535 ft 175 kts 269°
2026-05-04 12:55 37.41833 -5.80210 1322 ft 161 kts 271°
2026-05-04 12:55 37.41828 -5.81590 1098 ft 152 kts 271°
2026-05-04 12:56 37.41822 -5.82859 881 ft 139 kts 269°
2026-05-04 12:56 37.41817 -5.84017 699 ft 130 kts 270°
2026-05-04 12:56 37.41822 -5.85138 532 ft 131 kts 271°
2026-05-04 12:56 37.41811 -5.86258 348 ft 132 kts 268°
2026-05-04 12:57 37.41794 -5.87408 160 ft 134 kts 271°
2026-05-04 12:57 37.41797 -5.88519 105 ft 106 kts 270°
2026-05-04 12:57 37.41794 -5.89174 100 ft 45 kts 270°
2026-05-04 12:57 37.41791 -5.89546 98 ft 41 kts 269°
2026-05-04 12:58 37.41830 -5.89776 98 ft 20 kts 314°
2026-05-04 12:58 37.41909 -5.89834 96 ft 8 kts 337°
2026-05-04 12:58 37.41958 -5.89860 97 ft 8 kts 336°
2026-05-04 12:58 37.42009 -5.89889 95 ft 9 kts 335°
2026-05-04 12:59 37.42073 -5.89925 95 ft 12 kts 326°
2026-05-04 12:59 37.42126 -5.89992 93 ft 7 kts 315°
2026-05-04 12:59 37.42145 -5.90017 93 ft 1 kts 314°
2026-05-04 12:59 37.42153 -5.90027 93 ft 1 kts 314°
2026-05-04 13:00 37.42154 -5.90028 93 ft 0 kts 314°